Tracking 19969 objects as of 12-Nov-2019
Live streaming from Space Station
objects crossing your sky now
Track the group of recently launched Starlink satellites

H-2A R/B

Track H-2A R/B now!
10-day predictions


NORAD ID: 42073
Int'l Code: 2017-015B
Perigee: 485.9 km
Apogee: 498.1 km
Inclination: 97.1 °
Period: 94.3 minutes
Semi major axis: 6862 km
RCS: Unknown
Launch date: March 17, 2017
Source: Japan (JPN)
Launch site: TANEGASHIMA SPACE CENTER (TNSTA)

Note: This is a ROCKET BODY
aabbcc
Your satellite tracking list
Your tracking list is empty




NASA's NSSDC Master Catalog

Two Line Element Set (TLE):
1 42073U 17015B   19293.76511678 0.00001050  00000-0  39683-4 0    07
2 42073  97.0794 333.2767 0008889 276.8715  83.1283 15.26986190    06
Source of the keplerian elements: McCants